Temp
17 17 17 17 17 18 17 18 17 18 18 17 18 18 18 19 20 21 21 19 21 21 22 22 22 23 23 21 20 18 10 10 11 11 9 9 8 8 8 8 7 6 7 5 6
17 17 17 17 17 17 17 17 18 18 18 18 18 18 19 20 21 21 20 20 21 21 22 23 23 23 21 18 17 14 9 12 11 10 8 9 9 8 7 6 5 5 5 6 6
17 17 17 18 17 17 18 17 17 18 18 18 19 19 19 20 21 19 20 21 21 22 23 23 22 23 17 16 14 12 10 10 10 10 10 9 8 8 7 6 6 5 5 6 7
17 17 18 18 17 18 17 17 18 18 18 19 19 19 20 20 17 19 20 21 21 22 22 22 22 19 13 11 13 10 11 11 11 10 10 9 8 8 7 8 8 7 6 6 6
17 18 18 18 18 17 17 18 18 18 19 19 19 19 19 19 18 19 20 20 21 22 22 22 21 17 11 13 13 10 10 11 11 11 10 9 8 7 7 7 6 6 6 6 6
18 18 18 18 18 17 18 18 18 18 19 19 19 20 20 18 18 19 19 20 21 21 21 21 20 18 13 11 10 10 10 9 10 10 9 7 7 8 6 6 6 6 6 5 5
18 18 18 18 18 18 18 18 18 19 19 19 19 19 20 18 19 19 19 20 20 20 20 19 19 19 14 11 11 12 9 10 9 9 9 9 7 6 7 6 6 5 5 5 5
18 18 18 18 18 18 18 18 19 19 19 19 19 20 18 18 19 19 19 19 19 19 20 18 18 18 14 13 12 10 10 11 10 9 9 9 9 7 7 6 5 5 4 4 4
18 18 18 18 18 18 18 18 19 19 19 20 20 20 18 19 19 19 19 19 19 19 19 19 20 15 13 11 10 10 12 11 11 9 8 7 9 7 7 6 6 5 4 4 4
17 17 18 18 18 18 18 19 19 19 19 19 19 20 19 18 19 19 19 19 19 19 19 19 17 11 9 10 13 13 12 12 11 9 8 7 6 7 7 6 6 5 4 4 4
17 17 18 18 18 18 19 19 19 19 19 17 17 18 18 18 19 19 20 20 19 19 15 15 12 12 14 13 13 14 13 13 12 10 9 7 7 5 7 6 5 5 4 4 3
17 17 18 18 18 18 19 19 18 18 18 18 18 18 18 18 19 19 20 20 19 15 15 12 13 14 14 13 14 14 14 13 11 11 9 8 7 5 5 5 6 6 5 4 3
17 17 18 18 18 18 19 18 18 18 18 18 18 18 18 18 17 18 18 18 15 13 12 13 15 14 15 12 13 13 13 12 12 10 10 9 7 5 6 6 6 5 5 4 3
17 17 17 18 18 18 18 18 18 18 12 16 18 18 18 18 17 17 17 17 16 14 14 13 14 14 14 13 12 14 13 13 12 10 10 9 10 4 4 4 4 5 4 4 3
17 17 18 18 18 18 18 18 18 18 15 17 18 18 17 17 17 17 17 18 14 14 14 14 13 13 14 13 12 13 12 12 12 10 9 8 7 8 3 3 4 4 4 3 3
17 17 18 18 18 18 19 19 18 14 16 17 17 17 17 16 16 17 17 17 15 13 13 13 13 13 13 12 12 12 11 9 7 7 9 9 9 9 3 4 4 4 3 3 3
17 17 17 18 18 18 19 19 14 15 16 17 17 16 15 15 15 14 11 9 11 15 13 13 13 12 12 13 12 10 9 10 11 10 11 8 8 9 5 4 4 3 3 3 2
17 17 17 18 18 18 19 15 17 16 15 16 16 15 16 15 14 12 12 10 9 10 10 12 14 13 12 12 12 11 10 10 13 10 9 8 8 10 5 4 4 5 4 2 1
17 17 17 18 18 18 18 14 14 14 15 15 16 16 15 15 15 12 11 10 10 9 13 12 14 11 11 11 11 12 10 10 10 7 7 7 8 5 3 3 2 3 2 1 0
17 17 17 18 18 18 14 13 13 14 14 15 16 15 15 15 15 14 12 11 11 10 10 10 12 12 12 11 11 11 10 11 7 11 10 8 7 8 3 2 1 1 1 1 -0
16 17 17 18 18 18 13 11 13 14 14 15 15 15 14 15 14 13 12 10 10 10 10 10 9 13 12 11 11 10 10 8 7 6 9 7 8 6 5 3 2 2 2 1 -0
16 15 16 17 16 10 10 13 14 14 15 14 14 14 14 13 13 12 13 11 10 9 10 9 7 10 12 10 10 10 11 8 8 9 5 4 6 4 4 4 4 3 1 0 -1
16 16 16 17 13 9 12 12 13 14 13 14 13 14 13 13 14 12 11 9 9 9 10 9 9 10 13 10 9 10 9 7 5 4 6 6 8 3 3 3 3 2 0 -0 -1
16 13 16 17 15 11 11 13 13 13 13 13 13 13 13 13 11 11 10 9 9 9 9 8 7 10 12 13 10 10 9 7 7 5 6 5 8 7 2 1 0 0 -0 -1 -2
15 14 14 12 12 12 13 11 12 12 13 13 13 13 13 13 12 12 10 8 8 8 8 7 9 7 7 7 8 8 8 7 6 7 8 10 6 10 3 1 1 1 -0 -1 -2
15 15 14 13 13 13 11 11 11 12 12 13 13 12 12 13 13 11 10 9 10 7 8 6 9 7 8 9 8 7 7 6 6 6 5 7 7 5 2 3 1 0 -1 -1 -2
15 15 14 11 12 12 11 11 11 12 11 11 12 11 12 11 11 11 11 10 10 8 6 6 6 7 10 6 6 10 10 6 7 5 6 8 9 2 0 0 1 0 -0 -1 -2
Height
1544 1545 1546 1547 1548 1549 1549 1550 1554 1553 1554 1554 1556 1556 1556 1555 1554 1553 1551 1555 1554 1553 1552 1553 1552 1550 1549 1551 1556 1559 1580 1595 1595 1597 1600 1600 1602 1607 1607 1606 1607 1608 1609 1614 1616
1546 1548 1549 1547 1551 1551 1552 1554 1556 1556 1556 1558 1558 1558 1557 1557 1556 1555 1558 1557 1556 1555 1554 1553 1552 1553 1553 1558 1561 1563 1586 1588 1590 1591 1596 1600 1602 1606 1609 1608 1613 1611 1612 1615 1615
1548 1550 1551 1550 1553 1554 1555 1557 1559 1559 1560 1561 1561 1559 1559 1559 1559 1561 1560 1559 1557 1556 1555 1554 1554 1553 1558 1564 1570 1575 1587 1590 1592 1592 1595 1599 1603 1605 1606 1611 1610 1610 1613 1615 1615
1550 1552 1552 1554 1555 1556 1558 1560 1561 1562 1562 1562 1561 1560 1560 1561 1568 1564 1562 1561 1560 1558 1558 1556 1555 1557 1567 1573 1576 1584 1590 1591 1596 1597 1599 1601 1603 1605 1606 1607 1609 1612 1613 1614 1614
1553 1554 1554 1556 1558 1559 1561 1562 1563 1564 1564 1563 1562 1562 1562 1563 1568 1566 1564 1563 1562 1561 1560 1559 1558 1562 1572 1578 1580 1587 1593 1594 1597 1598 1600 1602 1604 1605 1606 1608 1611 1613 1614 1614 1613
1555 1555 1557 1559 1561 1562 1564 1564 1565 1566 1565 1565 1565 1565 1564 1563 1570 1568 1567 1566 1564 1562 1562 1561 1561 1565 1572 1580 1582 1591 1594 1598 1600 1600 1601 1603 1606 1606 1610 1610 1611 1612 1612 1613 1613
1557 1558 1559 1562 1563 1564 1566 1567 1567 1567 1567 1567 1567 1567 1565 1571 1571 1571 1570 1568 1567 1566 1564 1565 1565 1566 1575 1585 1591 1593 1599 1600 1602 1602 1603 1604 1609 1606 1606 1609 1609 1611 1611 1612 1611
1559 1561 1562 1564 1565 1567 1569 1569 1569 1569 1569 1569 1570 1569 1570 1573 1573 1573 1572 1571 1570 1569 1567 1569 1569 1569 1577 1588 1592 1596 1600 1604 1600 1602 1604 1606 1604 1603 1605 1607 1608 1609 1610 1610 1610
1561 1563 1565 1567 1568 1570 1570 1571 1571 1571 1571 1571 1571 1570 1574 1575 1575 1575 1575 1574 1572 1572 1572 1573 1572 1578 1585 1590 1598 1599 1601 1602 1600 1600 1603 1607 1601 1603 1605 1606 1607 1608 1608 1609 1608
1563 1566 1568 1569 1570 1572 1572 1573 1573 1573 1573 1572 1573 1575 1577 1578 1577 1577 1576 1576 1575 1574 1574 1574 1576 1583 1589 1594 1603 1598 1600 1598 1599 1598 1601 1604 1603 1602 1603 1604 1605 1605 1606 1607 1608
1566 1568 1570 1571 1572 1573 1574 1575 1577 1577 1575 1577 1579 1579 1579 1580 1579 1578 1576 1576 1575 1575 1579 1578 1586 1595 1590 1590 1590 1591 1593 1594 1594 1594 1598 1600 1599 1598 1600 1602 1602 1604 1604 1606 1607
1568 1570 1572 1573 1574 1575 1575 1575 1576 1579 1580 1580 1580 1580 1580 1580 1580 1578 1577 1578 1576 1581 1580 1586 1593 1588 1588 1589 1588 1590 1591 1594 1593 1593 1597 1596 1596 1596 1597 1598 1599 1600 1602 1604 1604
1570 1572 1573 1575 1576 1576 1576 1577 1577 1578 1579 1582 1582 1582 1582 1583 1582 1580 1579 1579 1580 1585 1587 1590 1590 1587 1587 1592 1591 1592 1592 1595 1597 1596 1596 1597 1596 1597 1597 1597 1597 1598 1600 1600 1600
1572 1573 1575 1576 1579 1577 1579 1579 1579 1579 1590 1587 1584 1584 1584 1582 1583 1582 1580 1582 1582 1587 1587 1590 1589 1588 1589 1592 1594 1593 1591 1591 1594 1600 1605 1599 1600 1599 1597 1595 1593 1595 1596 1596 1597
1573 1575 1576 1578 1578 1579 1582 1581 1580 1580 1608 1588 1585 1585 1584 1584 1585 1583 1582 1581 1584 1586 1588 1591 1590 1591 1591 1592 1592 1593 1591 1592 1592 1599 1602 1603 1609 1586 1597 1596 1588 1591 1592 1593 1595
1575 1576 1577 1578 1579 1580 1581 1581 1581 1593 1603 1588 1586 1585 1585 1585 1585 1584 1583 1583 1585 1587 1588 1591 1590 1591 1591 1590 1590 1590 1592 1597 1601 1605 1607 1597 1601 1581 1596 1584 1582 1586 1588 1591 1593
1576 1577 1578 1579 1580 1580 1581 1582 1594 1602 1589 1591 1588 1586 1587 1588 1587 1587 1592 1595 1597 1594 1597 1592 1591 1591 1591 1590 1590 1591 1598 1608 1604 1606 1600 1600 1603 1578 1579 1579 1578 1578 1583 1588 1592
1577 1578 1578 1579 1580 1580 1581 1583 1596 1590 1590 1586 1586 1588 1590 1589 1591 1593 1595 1601 1599 1598 1605 1604 1600 1593 1593 1594 1595 1596 1600 1611 1607 1611 1605 1600 1598 1573 1578 1578 1577 1579 1584 1589 1591
1577 1578 1578 1579 1579 1580 1582 1595 1593 1589 1586 1587 1587 1590 1592 1590 1591 1595 1600 1603 1601 1600 1599 1603 1596 1593 1593 1593 1595 1596 1603 1603 1607 1615 1618 1600 1585 1579 1580 1580 1580 1581 1585 1588 1590
1577 1578 1578 1578 1578 1579 1582 1590 1588 1585 1585 1586 1589 1589 1594 1592 1593 1594 1600 1601 1600 1600 1600 1602 1602 1593 1593 1594 1595 1596 1600 1605 1616 1608 1607 1598 1595 1582 1581 1579 1580 1582 1584 1586 1587
1577 1577 1576 1577 1578 1579 1587 1588 1585 1584 1585 1586 1588 1590 1591 1592 1593 1598 1599 1602 1601 1600 1600 1601 1605 1596 1594 1595 1596 1600 1602 1607 1612 1617 1612 1615 1589 1569 1569 1570 1572 1577 1581 1584 1585
1576 1576 1574 1575 1579 1583 1586 1583 1583 1583 1584 1584 1586 1587 1589 1592 1594 1597 1598 1600 1601 1601 1601 1603 1607 1606 1593 1593 1593 1594 1595 1602 1612 1608 1619 1622 1593 1567 1566 1566 1568 1574 1578 1581 1582
1574 1573 1574 1574 1582 1586 1584 1583 1582 1583 1584 1584 1587 1587 1588 1592 1595 1596 1598 1601 1601 1602 1602 1603 1605 1608 1592 1596 1595 1595 1595 1599 1606 1611 1610 1610 1578 1566 1566 1567 1569 1571 1575 1577 1578
1574 1574 1573 1573 1573 1576 1582 1582 1583 1583 1583 1584 1585 1587 1588 1592 1592 1596 1599 1601 1601 1602 1602 1603 1605 1601 1602 1589 1591 1595 1593 1596 1599 1612 1600 1594 1568 1559 1566 1567 1568 1570 1573 1574 1576
1572 1569 1569 1573 1572 1573 1576 1580 1582 1583 1582 1583 1585 1586 1587 1591 1592 1595 1598 1601 1602 1602 1602 1603 1604 1603 1596 1592 1592 1591 1589 1592 1595 1589 1587 1562 1571 1550 1557 1559 1562 1566 1570 1571 1573
1570 1569 1568 1568 1568 1571 1575 1578 1578 1580 1581 1582 1583 1583 1585 1588 1586 1592 1594 1598 1597 1602 1602 1603 1602 1602 1595 1588 1590 1590 1583 1583 1585 1584 1583 1569 1562 1552 1552 1554 1559 1563 1566 1567 1569
1568 1568 1568 1569 1569 1571 1570 1571 1573 1575 1580 1580 1581 1583 1585 1587 1587 1588 1589 1593 1595 1598 1601 1603 1604 1604 1594 1593 1590 1583 1566 1574 1571 1571 1567 1565 1547 1550 1553 1554 1556 1560 1562 1563 1565
Wind_Speed
12 12 13 13 14 17 17 17 16 18 18 17 17 16 17 15 12 11 16 13 9 9 12 15 15 19 18 22 12 8 5 3 6 6 5 9 5 8 5 10 8 8 16 16 8
12 12 13 15 15 18 18 17 17 18 17 15 12 10 15 16 15 16 11 9 6 7 8 8 14 12 13 8 8 8 4 3 0 7 6 8 8 8 5 16 15 19 15 10 5
12 12 13 16 18 17 17 16 17 16 14 9 5 6 6 7 8 11 8 6 4 4 5 9 8 9 12 11 10 6 4 4 5 17 19 10 9 7 21 2 11 18 15 8 2
12 13 16 17 18 19 19 16 15 12 8 4 6 4 2 2 4 10 9 8 5 4 4 5 4 6 7 6 6 7 9 7 10 13 11 6 13 11 2 4 14 12 9 4 3
12 15 18 19 20 19 15 13 11 8 7 5 7 5 10 17 11 11 10 8 8 3 6 7 13 11 6 8 12 8 6 10 14 11 11 11 8 6 11 16 14 11 7 4 3
14 18 20 20 18 13 12 13 12 11 10 11 10 11 14 22 13 12 10 6 10 3 8 9 12 21 16 7 7 8 19 14 9 8 11 12 8 1 13 17 15 11 8 5 3
16 19 20 17 14 15 15 15 16 13 12 12 13 15 19 12 11 12 9 10 10 9 11 13 7 3 10 9 14 16 6 5 5 9 3 13 1 4 19 19 16 13 9 7 2
18 19 17 17 18 15 14 14 11 13 11 11 8 8 9 9 9 7 11 11 12 16 18 18 18 21 9 21 5 4 4 2 5 8 6 2 5 4 23 22 17 15 12 9 5
19 19 18 19 16 13 12 10 11 9 7 8 6 6 5 7 6 7 8 11 13 15 15 10 15 13 6 5 4 4 1 2 1 15 6 4 4 9 21 21 18 17 15 11 8
20 18 18 17 14 13 12 10 7 6 7 7 5 6 4 5 5 6 3 3 4 2 3 5 7 5 4 4 2 3 2 3 4 6 5 5 7 8 20 22 21 19 17 14 10
19 17 17 16 15 14 11 12 4 4 19 10 7 7 4 3 7 6 1 2 3 5 4 6 7 3 2 3 3 1 2 4 2 3 4 6 5 9 20 17 19 19 19 16 12
18 17 17 14 12 6 4 3 6 8 11 10 8 8 9 4 1 7 3 2 3 3 2 6 3 3 1 4 2 3 1 3 2 2 4 0 6 4 13 11 22 22 18 17 14
17 16 15 15 6 3 10 15 10 5 4 5 8 6 5 8 6 10 7 4 5 5 4 5 2 3 3 4 3 0 2 1 4 2 2 4 5 2 4 6 15 18 15 16 14
16 18 14 11 3 10 12 8 4 2 4 6 4 5 5 2 4 10 7 2 4 4 2 3 4 3 3 2 2 2 2 1 2 2 3 1 5 4 5 6 13 18 14 17 14
16 14 11 7 4 9 7 2 4 1 3 1 2 2 6 3 1 8 9 5 3 1 2 1 3 4 3 1 2 4 1 2 1 2 3 1 2 4 2 7 11 18 17 15 11
14 12 8 5 6 7 4 6 1 5 2 1 1 1 2 6 3 4 4 7 4 4 5 1 1 2 1 2 2 3 3 5 4 3 2 2 3 5 5 6 3 14 18 15 10
13 10 5 7 3 3 2 4 5 3 3 1 1 2 2 3 4 6 5 7 3 2 4 4 1 3 2 2 1 7 5 4 5 4 5 3 2 8 5 5 6 20 21 15 9
12 10 5 3 2 2 1 5 1 2 4 1 2 2 2 1 3 5 3 3 4 3 3 2 4 3 4 2 1 3 3 4 4 3 5 0 6 5 1 3 4 17 17 13 8
10 9 7 5 3 2 1 3 5 4 2 5 2 2 2 2 2 4 3 1 1 2 2 1 3 0 1 1 1 1 2 1 0 2 2 3 7 0 2 2 7 15 15 12 7
10 8 8 7 4 3 4 4 3 2 1 1 4 2 3 2 1 2 0 0 0 1 1 3 3 2 0 1 2 2 4 2 3 4 5 5 6 5 6 9 9 14 15 12 8
9 5 5 6 4 2 2 5 3 3 2 1 4 3 2 2 2 1 2 1 1 2 2 1 2 2 1 3 4 1 0 4 3 4 3 4 6 4 6 8 13 19 16 12 7
6 2 4 8 2 3 3 3 3 3 1 1 2 2 3 2 2 2 2 1 1 1 1 1 3 4 5 1 1 1 2 4 4 4 3 2 7 1 4 7 17 17 15 12 7
3 3 6 9 3 1 1 0 2 2 1 2 2 1 1 3 2 2 2 2 1 1 1 2 0 4 6 2 2 2 3 4 4 3 6 4 7 2 2 5 10 18 16 12 7
4 1 4 4 4 7 5 3 3 2 2 2 3 2 3 2 3 4 2 1 0 1 2 0 1 5 6 5 2 3 4 5 5 3 3 7 9 10 7 7 13 17 16 12 8
4 3 4 3 3 5 4 5 4 5 2 4 1 3 4 3 2 3 2 0 1 1 2 2 3 3 6 9 3 5 8 8 9 6 7 7 7 14 7 15 23 20 17 13 10
3 3 4 2 8 9 4 6 8 3 5 4 3 4 2 4 4 6 6 4 3 2 2 1 2 2 5 1 2 7 8 10 9 4 11 17 20 1 0 10 21 22 18 15 11
5 5 2 2 5 4 5 6 9 10 4 2 3 5 3 3 4 7 5 5 4 6 5 2 1 3 5 5 8 6 6 6 4 6 6 7 8 7 4 14 24 22 19 15 11
Wind_Direction
125 122 130 129 125 123 124 126 127 123 119 113 112 99 96 95 97 109 68 28 44 74 93 76 101 100 86 79 71 85 68 119 171 158 153 148 112 69 87 117 86 104 132 131 122
129 128 133 130 127 124 124 124 127 126 120 118 110 105 104 99 96 84 56 43 60 69 90 114 82 96 75 47 38 63 83 139 272 143 139 126 107 125 113 107 101 107 119 122 125
127 128 134 129 128 127 125 126 127 125 120 113 97 107 127 107 78 29 48 54 71 59 71 69 62 79 66 47 23 41 117 130 39 124 130 116 110 131 132 126 168 153 139 136 149
127 135 131 133 127 123 125 125 125 128 118 99 89 68 168 129 73 18 34 40 54 47 27 21 17 61 63 54 34 91 61 105 127 120 118 118 134 146 255 194 158 143 141 131 70
133 132 132 131 128 123 124 124 127 123 103 81 81 106 118 92 41 40 39 50 45 34 65 75 91 86 90 98 70 74 98 86 124 124 114 135 133 147 134 145 150 151 151 125 59
135 133 136 136 135 128 126 122 118 111 99 92 90 102 101 76 54 45 59 68 60 84 78 65 101 109 89 65 59 100 108 111 119 126 132 126 132 88 166 160 160 168 163 150 74
140 139 138 140 137 129 126 121 111 101 100 97 104 104 86 72 65 58 78 66 70 61 90 89 103 116 101 101 105 106 78 91 127 144 139 135 213 230 179 174 172 174 175 166 173
144 143 140 136 126 125 128 127 106 96 89 100 88 89 75 76 75 79 92 74 74 66 80 92 105 88 84 114 82 74 83 96 193 179 175 111 268 181 174 179 180 183 181 190 214
148 141 137 133 124 126 129 129 118 94 80 105 62 77 64 80 80 76 102 82 78 85 83 71 84 90 100 85 51 25 239 211 241 197 153 198 255 183 182 191 190 189 193 200 217
147 141 141 139 131 126 122 136 118 99 81 76 47 79 58 34 51 37 116 93 105 98 53 53 66 75 43 59 216 211 233 239 232 206 176 190 256 192 194 202 202 197 198 206 220
149 145 145 143 142 135 126 135 125 84 67 68 58 77 53 42 52 7 108 119 82 62 51 33 68 108 203 206 217 211 217 255 233 183 159 219 252 212 196 201 202 200 204 207 214
153 149 147 145 148 156 146 169 115 123 74 61 63 61 41 26 39 51 61 109 75 65 3 29 89 220 235 7 215 203 226 267 300 136 182 22 270 228 186 210 207 205 205 209 212
156 153 150 145 132 106 127 118 108 106 87 37 35 28 30 38 42 11 34 57 82 56 18 124 197 294 167 37 50 107 177 193 240 10 272 337 283 198 212 218 214 211 217 211 217
158 154 158 157 96 128 133 112 69 37 74 317 2 15 350 9 53 27 24 53 46 143 116 95 342 56 84 63 89 330 187 172 271 105 263 57 287 244 222 224 214 206 204 197 208
154 156 165 174 141 143 147 88 352 116 51 261 358 31 34 70 349 7 20 64 87 74 117 261 22 31 66 269 145 226 224 262 242 133 23 319 78 254 136 246 232 209 203 203 213
161 159 163 167 155 153 156 357 86 44 246 16 333 341 30 28 32 347 56 66 83 80 38 124 77 81 256 285 207 320 78 44 55 88 351 213 152 267 195 211 190 197 199 202 210
176 172 151 166 171 180 195 339 38 130 24 220 146 62 81 1 26 37 37 18 43 58 1 356 359 344 358 351 70 44 46 343 354 2 235 169 159 255 235 227 218 188 191 198 203
186 192 181 164 209 214 241 56 194 174 203 271 113 72 84 356 32 29 69 28 35 58 79 71 333 16 6 66 229 29 117 142 285 270 289 176 239 263 238 115 173 185 188 187 194
199 204 216 223 254 260 160 79 214 207 196 150 67 87 339 34 109 83 55 178 277 28 108 92 275 288 79 121 118 50 46 180 123 35 9 251 291 237 106 143 164 176 180 184 196
207 215 230 233 250 204 86 225 203 216 252 156 171 153 191 278 114 73 178 156 241 68 93 195 322 191 126 113 47 53 156 6 20 315 293 285 283 252 233 222 198 191 190 189 196
202 214 228 216 199 179 171 215 210 198 178 159 187 134 167 170 109 128 165 163 34 341 80 139 112 287 35 191 181 79 350 58 126 148 229 298 268 215 230 206 200 199 196 192 196
197 236 191 178 142 57 151 190 160 163 153 125 99 112 154 154 123 134 204 162 50 4 240 267 151 266 231 110 90 144 190 149 128 263 225 163 268 313 273 227 202 186 185 184 200
225 194 178 181 154 207 228 158 146 152 173 134 133 193 119 144 130 119 157 124 75 84 169 192 299 339 346 45 18 220 201 129 109 83 217 168 267 172 156 157 179 175 177 183 200
212 116 176 195 153 142 162 192 171 179 168 135 143 143 117 117 18 160 170 182 71 110 107 193 185 186 210 225 139 230 207 182 149 156 213 231 282 268 216 188 179 180 180 187 204
229 236 185 202 206 153 150 150 148 183 194 174 93 224 172 138 124 149 129 126 183 160 107 112 259 213 256 265 227 234 228 195 200 200 194 282 222 283 208 201 195 185 183 192 203
251 214 181 160 155 131 167 216 174 182 153 224 196 170 178 164 183 185 150 199 197 169 153 32 267 352 289 89 40 279 231 222 230 235 258 269 277 23 1 183 175 183 189 198 207
242 250 229 182 159 131 211 186 198 150 201 224 207 125 147 179 131 113 128 123 162 161 177 164 135 44 271 349 315 304 230 195 208 209 186 232 249 159 160 177 182 187 199 201 206